Tracking 21970 objects as of 25-Nov-2020
HD Live streaming from Space Station
objects crossing your sky now

IRIDIUM 33 DEB

Track IRIDIUM 33 DEB now!
10-day predictions


NORAD ID: 35851
Int'l Code: 1997-051TB
Perigee: 636.4 km
Apogee: 738.3 km
Inclination: 86.4 °
Period: 98.4 minutes
Semi major axis: 7058 km
RCS: 0.009 m2 (small)
Launch date: September 14, 1997
Source: United States (US)
Launch site: TYURATAM MISSILE AND SPACE COMPLEX (TTMTR)

Note: This is SATELLITE DEBRIS
aabbcc
Your satellite tracking list
Your tracking list is empty




NASA's NSSDC Master Catalog

Two Line Element Set (TLE):
1 35851U 97051TB  20329.68922270  .00006666  00000-0  12201-2 0  9998
2 35851  86.4129 119.3448 0072220 312.5791  46.9341 14.64022902612270
Source of the keplerian elements: AFSPC